Weather History for Decatur, IL

Change the Weather History Date:

Saturday, March 2, 2013

  Actual Average Record
Temperature  
Mean Temperature 27 °F 36 °F  
Max Temperature 34 °F 45 °F 69 °F (2008)
Min Temperature 20 °F 27 °F 6 °F (2014)
Degree Days  
Heating Degree Days 38 29  
Month to date heating degree days 74 58  
Since 1 July heating degree days 4044 4315  
Cooling Degree Days 0 0  
Month to date cooling degree days 0 0  
Year to date cooling degree days 0 0  
Moisture  
Dew Point 18 °F    
Average Humidity 67    
Maximum Humidity 81    
Minimum Humidity 53    
Precipitation  
Precipitation T in 0.07 in 0.59 in (2002)
Month to date precipitation 0.03 0.15  
Year to date precipitation 4.67 3.87  
Sea Level Pressure  
Sea Level Pressure 30.19 in    
Wind  
Wind Speed 13 mph (NNW)    
Max Wind Speed 20 mph    
Max Gust Speed 22 mph    
Visibility 10 miles    
Events      
T = Trace of Precipitation, MM = Missing Value Source: NWS Daily Summary

Daily Weather History Graph

Daily Weather History Graph

Search for Another Location

Airport:

Trip Planner

Search our weather history database for the weather conditions in past years. The results will help you decide how hot, cold, wet, or windy it might be!

Date:

Astronomy

Mar. 02, 2013 Rise Set
Actual Time 6:26 AM CST 5:48 PM CST
Civil Twilight 5:59 AM CST 6:15 PM CST
Nautical Twilight 5:28 AM CST 6:47 PM CST
Astronomical Twilight 4:57 AM CST 7:18 PM CST
Moon 11:27 PM CST (3/2) 8:55 AM CST (3/2)
Length of Visible Light 12h 16m
Length of Day
11h 22m
Waning Gibbous, 74% of the Moon is Illuminated
Mar 2
Waning Gibbous
Mar 4
Last Quarter
Mar 11
New
Mar 19
First Quarter
Mar 27
Full

Hourly Weather History & Observations

Time (CST) Temp. Windchill Dew Point Humidity Pressure Visibility Wind Dir Wind Speed Gust Speed Precip Events Conditions
12:50 AM 26.6 °F 13.8 °F 21.2 °F 80% 30.16 in 10.0 mi North 17.3 mph - N/A   Overcast
12:54 AM 26.1 °F 13.6 °F 21.0 °F 81% 30.19 in 10.0 mi North 16.1 mph - N/A   Overcast
1:12 AM 26.6 °F 14.7 °F 21.2 °F 80% 30.16 in 10.0 mi North 15.0 mph - N/A   Overcast
1:47 AM 26.6 °F 14.7 °F 21.2 °F 80% 30.16 in 10.0 mi North 15.0 mph - N/A   Overcast
1:54 AM 26.1 °F 14.0 °F 21.0 °F 81% 30.18 in 10.0 mi North 15.0 mph - N/A   Overcast
2:33 AM 26.6 °F 15.2 °F 19.4 °F 74% 30.15 in 10.0 mi North 13.8 mph - N/A   Overcast
2:54 AM 26.1 °F 14.5 °F 19.9 °F 78% 30.17 in 10.0 mi North 13.8 mph - N/A   Overcast
3:54 AM 26.1 °F 14.5 °F 19.9 °F 78% 30.17 in 10.0 mi North 13.8 mph - N/A   Overcast
4:54 AM 26.1 °F 14.5 °F 19.9 °F 78% 30.17 in 10.0 mi North 13.8 mph - N/A   Overcast
5:06 AM 26.6 °F 13.8 °F 19.4 °F 74% 30.15 in 10.0 mi North 17.3 mph - N/A   Overcast
5:54 AM 26.1 °F - 19.0 °F 75% 30.18 in 10.0 mi North - - N/A   Overcast
6:54 AM 26.1 °F 14.5 °F 19.0 °F 75% 30.19 in 10.0 mi North 13.8 mph - 0.00 in   Overcast
7:54 AM 26.1 °F 14.0 °F 19.0 °F 75% 30.20 in 10.0 mi NNW 15.0 mph - N/A   Overcast
8:54 AM 27.0 °F 15.6 °F 19.9 °F 75% 30.21 in 10.0 mi North 13.8 mph - N/A   Overcast
9:45 AM 28.4 °F 19.1 °F 21.2 °F 74% 30.19 in 10.0 mi NNW 10.4 mph - N/A   Overcast
9:54 AM 28.0 °F 17.5 °F 21.0 °F 75% 30.22 in 10.0 mi NNW 12.7 mph - N/A   Overcast
10:54 AM 30.0 °F 20.0 °F 21.9 °F 72% 30.22 in 10.0 mi NNW 12.7 mph - N/A   Overcast
11:54 AM 32.0 °F 22.1 °F 21.9 °F 66% 30.21 in 10.0 mi NNW 13.8 mph - N/A   Overcast
12:54 PM 34.0 °F 23.0 °F 19.0 °F 54% 30.19 in 10.0 mi North 18.4 mph 21.9 mph N/A   Mostly Cloudy
1:54 PM 30.9 °F 20.2 °F 17.1 °F 57% 30.19 in 10.0 mi NNW 15.0 mph - N/A   Mostly Cloudy
2:54 PM 30.9 °F 20.7 °F 15.1 °F 52% 30.19 in 10.0 mi NNW 13.8 mph - N/A   Overcast
3:54 PM 30.9 °F 20.2 °F 17.1 °F 57% 30.19 in 10.0 mi North 15.0 mph - N/A   Mostly Cloudy
4:54 PM 28.9 °F 18.6 °F 16.0 °F 58% 30.20 in 10.0 mi North 12.7 mph - N/A   Mostly Cloudy
5:54 PM 27.0 °F 17.3 °F 16.0 °F 63% 30.22 in 10.0 mi NW 10.4 mph - N/A   Scattered Clouds
6:54 PM 26.1 °F 15.6 °F 16.0 °F 66% 30.22 in 10.0 mi NNW 11.5 mph - N/A   Scattered Clouds
7:54 PM 25.0 °F 13.6 °F 15.1 °F 66% 30.23 in 10.0 mi NNW 12.7 mph - N/A   Clear
8:54 PM 23.0 °F 15.8 °F 14.0 °F 68% 30.23 in 10.0 mi North 5.8 mph - N/A   Clear
9:54 PM 23.0 °F 11.7 °F 12.9 °F 65% 30.23 in 10.0 mi NNW 11.5 mph - N/A   Clear
10:54 PM 21.0 °F 12.4 °F 12.9 °F 71% 30.22 in 10.0 mi NNW 6.9 mph - N/A   Clear
11:54 PM 19.9 °F 12.1 °F 12.0 °F 71% 30.21 in 10.0 mi North 5.8 mph - N/A   Clear